Time,TemperatureF,DewpointF,PressureIn,WindDirection,WindDirectionDegrees,WindSpeedMPH,WindSpeedGustMPH,Humidity,HourlyPrecipIn,Conditions,Clouds,dailyrainin,SoftwareType,DateUTC
2013-04-03 00:22:00,40.1,30.0,29.99,ESE,123,5.0,11.0,68,0.00,,,0.00,weatherlink.com 1.10,2013-04-02 23:22:00,
2013-04-03 00:37:00,40.0,30.0,29.99,ESE,118,4.0,12.0,68,0.00,,,0.00,weatherlink.com 1.10,2013-04-02 23:37:00,
2013-04-03 00:52:00,39.9,30.0,30.00,ENE,73,5.0,11.0,68,0.00,,,0.00,weatherlink.com 1.10,2013-04-02 23:52:00,
2013-04-03 01:07:00,39.7,31.0,30.00,ESE,115,6.0,11.0,70,0.00,,,0.00,weatherlink.com 1.10,2013-04-03 00:07:00,
2013-04-03 01:22:00,39.5,31.0,30.00,East,101,8.0,9.0,71,0.00,,,0.00,weatherlink.com 1.10,2013-04-03 00:22:00,
2013-04-03 01:37:00,39.3,31.0,30.00,ESE,110,5.0,9.0,71,0.00,,,0.00,weatherlink.com 1.10,2013-04-03 00:37:00,
2013-04-03 01:52:00,39.1,30.0,30.00,SE,131,5.0,10.0,71,0.00,,,0.00,weatherlink.com 1.10,2013-04-03 00:52:00,
2013-04-03 02:07:00,38.9,31.0,30.01,SE,132,3.0,8.0,73,0.00,,,0.00,weatherlink.com 1.10,2013-04-03 01:07:00,
2013-04-03 02:22:00,38.9,31.0,30.01,East,98,8.0,12.0,74,0.00,,,0.00,weatherlink.com 1.10,2013-04-03 01:22:00,
2013-04-03 02:37:00,38.8,32.0,30.01,East,94,5.0,8.0,76,0.00,,,0.00,weatherlink.com 1.10,2013-04-03 01:37:00,
2013-04-03 02:52:00,38.4,32.0,30.01,SE,144,4.0,7.0,77,0.00,,,0.00,weatherlink.com 1.10,2013-04-03 01:52:00,
2013-04-03 03:07:00,38.2,32.0,30.01,East,86,2.0,5.0,78,0.00,,,0.00,weatherlink.com 1.10,2013-04-03 02:07:00,
2013-04-03 03:22:00,37.8,32.0,30.01,East,96,2.0,4.0,79,0.00,,,0.00,weatherlink.com 1.10,2013-04-03 02:22:00,
2013-04-03 03:38:00,37.3,32.0,30.01,ESE,104,1.0,2.0,81,0.00,,,0.00,weatherlink.com 1.10,2013-04-03 02:38:00,
2013-04-03 03:53:00,36.7,31.0,30.00,ESE,117,0.0,2.0,81,0.00,,,0.00,weatherlink.com 1.10,2013-04-03 02:53:00,
2013-04-03 04:08:00,35.5,31.0,30.01,ESE,114,0.0,0.0,82,0.00,,,0.00,weatherlink.com 1.10,2013-04-03 03:08:00,
2013-04-03 04:23:00,34.0,30.0,30.01,ESE,115,0.0,0.0,84,0.00,,,0.00,weatherlink.com 1.10,2013-04-03 03:23:00,
2013-04-03 04:38:00,33.3,30.0,30.01,ESE,114,1.0,1.0,86,0.00,,,0.00,weatherlink.com 1.10,2013-04-03 03:38:00,
2013-04-03 04:53:00,32.8,29.0,30.01,ESE,114,0.0,0.0,86,0.00,,,0.00,weatherlink.com 1.10,2013-04-03 03:53:00,
2013-04-03 05:08:00,31.5,28.0,30.01,ESE,114,0.0,0.0,87,0.00,,,0.00,weatherlink.com 1.10,2013-04-03 04:08:00,
2013-04-03 05:23:00,31.9,29.0,30.01,ESE,116,1.0,1.0,89,0.00,,,0.00,weatherlink.com 1.10,2013-04-03 04:23:00,
2013-04-03 05:38:00,34.4,31.0,30.01,ESE,110,2.0,4.0,86,0.00,,,0.00,weatherlink.com 1.10,2013-04-03 04:38:00,
2013-04-03 05:53:00,35.9,31.0,30.01,East,84,3.0,7.0,81,0.00,,,0.00,weatherlink.com 1.10,2013-04-03 04:53:00,
2013-04-03 06:08:00,36.4,30.0,30.02,East,86,7.0,7.0,78,0.00,,,0.00,weatherlink.com 1.10,2013-04-03 05:08:00,
2013-04-03 06:23:00,36.7,30.0,30.02,ESE,121,3.0,7.0,77,0.00,,,0.00,weatherlink.com 1.10,2013-04-03 05:23:00,
2013-04-03 06:39:00,36.4,30.0,30.02,ENE,77,3.0,5.0,78,0.00,,,0.00,weatherlink.com 1.10,2013-04-03 05:39:00,
2013-04-03 06:53:00,36.0,30.0,30.03,ESE,103,3.0,3.0,79,0.00,,,0.00,weatherlink.com 1.10,2013-04-03 05:53:00,
2013-04-03 07:08:00,36.1,30.0,30.03,East,101,3.0,6.0,79,0.00,,,0.00,weatherlink.com 1.10,2013-04-03 06:08:00,
2013-04-03 07:23:00,36.8,30.0,30.03,East,101,4.0,8.0,77,0.00,,,0.00,weatherlink.com 1.10,2013-04-03 06:23:00,
2013-04-03 07:38:00,37.0,29.0,30.03,East,93,6.0,9.0,74,0.00,,,0.00,weatherlink.com 1.10,2013-04-03 06:38:00,
2013-04-03 07:53:00,37.3,29.0,30.03,ENE,77,5.0,6.0,73,0.00,,,0.00,weatherlink.com 1.10,2013-04-03 06:53:00,
2013-04-03 08:08:00,37.8,30.0,30.03,East,82,3.0,8.0,72,0.00,,,0.00,weatherlink.com 1.10,2013-04-03 07:08:00,
2013-04-03 08:23:00,38.0,29.0,30.02,SSE,149,1.0,7.0,71,0.00,,,0.00,weatherlink.com 1.10,2013-04-03 07:23:00,
2013-04-03 08:38:00,38.4,31.0,30.02,East,101,6.0,11.0,74,0.00,,,0.00,weatherlink.com 1.10,2013-04-03 07:38:00,
2013-04-03 08:53:00,39.5,31.0,30.03,ESE,113,8.0,12.0,72,0.00,,,0.00,weatherlink.com 1.10,2013-04-03 07:53:00,
2013-04-03 09:08:00,39.2,31.0,30.03,ENE,74,5.0,8.0,71,0.00,,,0.00,weatherlink.com 1.10,2013-04-03 08:08:00,
2013-04-03 09:23:00,40.1,31.0,30.03,NNE,18,5.0,10.0,70,0.00,,,0.00,weatherlink.com 1.10,2013-04-03 08:23:00,
2013-04-03 09:38:00,40.4,32.0,30.04,SE,139,8.0,13.0,72,0.00,,,0.00,weatherlink.com 1.10,2013-04-03 08:38:00,
2013-04-03 09:53:00,39.5,32.0,30.04,East,99,10.0,14.0,74,0.00,,,0.00,weatherlink.com 1.10,2013-04-03 08:53:00,
2013-04-03 10:08:00,40.3,33.0,30.04,ENE,77,7.0,14.0,74,0.00,,,0.00,weatherlink.com 1.10,2013-04-03 09:08:00,
2013-04-03 10:23:00,40.0,32.0,30.04,East,85,8.0,13.0,73,0.00,,,0.00,weatherlink.com 1.10,2013-04-03 09:23:00,
2013-04-03 10:39:00,40.3,32.0,30.04,ESE,118,9.0,14.0,73,0.00,,,0.00,weatherlink.com 1.10,2013-04-03 09:39:00,
2013-04-03 10:54:00,40.9,32.0,30.05,East,99,15.0,17.0,71,0.00,,,0.00,weatherlink.com 1.10,2013-04-03 09:54:00,
2013-04-03 11:09:00,40.4,32.0,30.04,ENE,62,5.0,15.0,72,0.00,,,0.00,weatherlink.com 1.10,2013-04-03 10:09:00,
2013-04-03 11:24:00,40.9,32.0,30.05,SE,139,5.0,15.0,71,0.00,,,0.00,weatherlink.com 1.10,2013-04-03 10:24:00,
2013-04-03 11:39:00,41.2,32.0,30.05,East,100,4.0,14.0,71,0.00,,,0.00,weatherlink.com 1.10,2013-04-03 10:39:00,
2013-04-03 11:54:00,40.9,32.0,30.05,ESE,117,13.0,13.0,71,0.00,,,0.00,weatherlink.com 1.10,2013-04-03 10:54:00,
2013-04-03 12:09:00,41.7,32.0,30.05,East,91,6.0,13.0,69,0.00,,,0.00,weatherlink.com 1.10,2013-04-03 11:09:00,
2013-04-03 12:24:00,41.9,32.0,30.05,ESE,114,9.0,15.0,67,0.00,,,0.00,weatherlink.com 1.10,2013-04-03 11:24:00,
2013-04-03 12:39:00,42.2,32.0,30.05,East,96,11.0,19.0,68,0.00,,,0.00,weatherlink.com 1.10,2013-04-03 11:39:00,
2013-04-03 12:54:00,42.2,32.0,30.05,ESE,112,7.0,15.0,68,0.00,,,0.00,weatherlink.com 1.10,2013-04-03 11:54:00,
2013-04-03 13:09:00,42.1,32.0,30.05,East,100,10.0,16.0,67,0.00,,,0.00,weatherlink.com 1.10,2013-04-03 12:09:00,
2013-04-03 13:24:00,42.5,31.0,30.05,East,89,8.0,15.0,63,0.00,,,0.00,weatherlink.com 1.10,2013-04-03 12:24:00,
2013-04-03 13:39:00,42.7,32.0,30.05,ESE,114,8.0,14.0,66,0.00,,,0.00,weatherlink.com 1.10,2013-04-03 12:39:00,
2013-04-03 13:54:00,43.2,30.0,30.05,East,100,11.0,15.0,59,0.00,,,0.00,weatherlink.com 1.10,2013-04-03 12:54:00,
2013-04-03 14:09:00,43.0,29.0,30.04,SE,127,8.0,16.0,57,0.00,,,0.00,weatherlink.com 1.10,2013-04-03 13:09:00,
2013-04-03 14:24:00,43.5,29.0,30.04,East,96,13.0,14.0,58,0.00,,,0.00,weatherlink.com 1.10,2013-04-03 13:24:00,
2013-04-03 14:39:00,43.9,29.0,30.04,SSE,152,7.0,15.0,57,0.00,,,0.00,weatherlink.com 1.10,2013-04-03 13:39:00,
2013-04-03 14:54:00,44.0,31.0,30.04,East,101,9.0,15.0,61,0.00,,,0.00,weatherlink.com 1.10,2013-04-03 13:54:00,
2013-04-03 15:09:00,43.7,31.0,30.04,East,101,11.0,17.0,62,0.00,,,0.00,weatherlink.com 1.10,2013-04-03 14:09:00,
2013-04-03 15:24:00,44.2,33.0,30.03,East,80,8.0,13.0,64,0.00,,,0.00,weatherlink.com 1.10,2013-04-03 14:24:00,
2013-04-03 15:39:00,44.2,32.0,30.04,SE,127,9.0,14.0,62,0.00,,,0.00,weatherlink.com 1.10,2013-04-03 14:39:00,
2013-04-03 15:54:00,44.1,32.0,30.03,ESE,120,4.0,14.0,62,0.00,,,0.00,weatherlink.com 1.10,2013-04-03 14:54:00,
2013-04-03 16:09:00,44.0,32.0,30.03,NNE,27,12.0,14.0,63,0.00,,,0.00,weatherlink.com 1.10,2013-04-03 15:09:00,
2013-04-03 16:24:00,43.6,32.0,30.02,ESE,113,5.0,16.0,63,0.00,,,0.00,weatherlink.com 1.10,2013-04-03 15:24:00,
2013-04-03 16:39:00,44.0,32.0,30.02,ESE,115,6.0,13.0,62,0.00,,,0.00,weatherlink.com 1.10,2013-04-03 15:39:00,
2013-04-03 17:09:00,44.3,30.0,30.02,East,80,5.0,14.0,58,0.00,,,0.00,weatherlink.com 1.10,2013-04-03 16:09:00,
2013-04-03 17:24:00,44.5,29.0,30.02,NNE,27,9.0,14.0,55,0.00,,,0.00,weatherlink.com 1.10,2013-04-03 16:24:00,
2013-04-03 17:54:00,44.1,29.0,30.02,ENE,67,6.0,17.0,55,0.00,,,0.00,weatherlink.com 1.10,2013-04-03 16:54:00,
2013-04-03 18:09:00,43.9,30.0,30.02,East,91,7.0,11.0,59,0.00,,,0.00,weatherlink.com 1.10,2013-04-03 17:09:00,
2013-04-03 18:24:00,43.7,29.0,30.02,East,98,5.0,13.0,57,0.00,,,0.00,weatherlink.com 1.10,2013-04-03 17:24:00,
2013-04-03 18:39:00,43.7,28.0,30.02,East,92,13.0,13.0,55,0.00,,,0.00,weatherlink.com 1.10,2013-04-03 17:39:00,
2013-04-03 18:54:00,43.8,27.0,30.02,East,94,5.0,13.0,53,0.00,,,0.00,weatherlink.com 1.10,2013-04-03 17:54:00,
2013-04-03 19:09:00,42.9,27.0,30.02,NE,56,3.0,12.0,53,0.00,,,0.00,weatherlink.com 1.10,2013-04-03 18:09:00,
2013-04-03 19:24:00,42.4,27.0,30.03,NE,51,8.0,12.0,54,0.00,,,0.00,weatherlink.com 1.10,2013-04-03 18:24:00,
2013-04-03 19:54:00,41.8,28.0,30.03,ENE,62,4.0,11.0,58,0.00,,,0.00,weatherlink.com 1.10,2013-04-03 18:54:00,
2013-04-03 20:09:00,41.5,28.0,30.03,East,81,7.0,14.0,60,0.00,,,0.00,weatherlink.com 1.10,2013-04-03 19:09:00,
2013-04-03 20:24:00,41.3,29.0,30.04,ENE,64,3.0,12.0,62,0.00,,,0.00,weatherlink.com 1.10,2013-04-03 19:24:00,
2013-04-03 20:39:00,41.1,30.0,30.04,East,87,4.0,12.0,64,0.00,,,0.00,weatherlink.com 1.10,2013-04-03 19:39:00,
2013-04-03 20:54:00,40.8,30.0,30.04,SSE,155,4.0,13.0,66,0.00,,,0.00,weatherlink.com 1.10,2013-04-03 19:54:00,
2013-04-03 21:09:00,40.5,30.0,30.05,ENE,68,5.0,11.0,67,0.00,,,0.00,weatherlink.com 1.10,2013-04-03 20:09:00,
2013-04-03 21:24:00,40.4,30.0,30.05,NE,43,2.0,9.0,67,0.00,,,0.00,weatherlink.com 1.10,2013-04-03 20:24:00,
2013-04-03 21:39:00,40.2,30.0,30.05,SE,126,2.0,6.0,67,0.00,,,0.00,weatherlink.com 1.10,2013-04-03 20:39:00,
2013-04-03 21:54:00,40.1,30.0,30.05,SE,129,3.0,7.0,67,0.00,,,0.00,weatherlink.com 1.10,2013-04-03 20:54:00,
2013-04-03 22:09:00,40.1,30.0,30.05,NNE,13,2.0,7.0,68,0.00,,,0.00,weatherlink.com 1.10,2013-04-03 21:09:00,
2013-04-03 22:24:00,40.2,31.0,30.05,East,82,5.0,12.0,70,0.00,,,0.00,weatherlink.com 1.10,2013-04-03 21:24:00,
2013-04-03 22:39:00,40.1,32.0,30.05,NE,34,5.0,11.0,73,0.00,,,0.00,weatherlink.com 1.10,2013-04-03 21:39:00,
2013-04-03 22:54:00,39.9,33.0,30.05,NNE,15,5.0,8.0,75,0.00,,,0.00,weatherlink.com 1.10,2013-04-03 21:54:00,
2013-04-03 23:09:00,39.8,33.0,30.05,NE,43,2.0,5.0,77,0.00,,,0.00,weatherlink.com 1.10,2013-04-03 22:09:00,
2013-04-03 23:24:00,39.8,33.0,30.05,East,97,4.0,7.0,77,0.00,,,0.00,weatherlink.com 1.10,2013-04-03 22:24:00,
2013-04-03 23:39:00,40.1,33.0,30.05,ESE,102,2.0,8.0,75,0.00,,,0.00,weatherlink.com 1.10,2013-04-03 22:39:00,
2013-04-03 23:54:00,40.2,33.0,30.05,ENE,68,2.0,7.0,75,0.00,,,0.00,weatherlink.com 1.10,2013-04-03 22:54:00,